This is the latest recevied weather packets stored in our database for station/object lw9ero. If no packets are shown the sender has not sent any weather packets the latest 10 day(s).
| Time | Temp. | Humidity | Pressure | Rain* | Wind** | Luminosity | Snow |
|---|---|---|---|---|---|---|---|
| 1778129994 | 15° C | 95% | 1005.4 hPa | 0 mm | - | - | - |
| 1778129389 | 15.56° C | 95% | 1004.3 hPa | 0 mm | - | - | - |
| 1778128782 | 15.56° C | 95% | 1003.4 hPa | 0 mm | - | - | - |
| 1778128176 | 15° C | 96% | 1003.5 hPa | 0 mm | - | - | - |
| 1778127569 | 15.56° C | 95% | 1003.7 hPa | 0 mm | - | - | - |
| 1778126964 | 15° C | 95% | 1005 hPa | 0 mm | - | - | - |
| 1778126358 | 15.56° C | 95% | 1005.9 hPa | 0 mm | - | - | - |
| 1778125751 | 15° C | 95% | 1005.8 hPa | 0 mm | - | - | - |
| 1778125144 | 15.56° C | 94% | 1005.5 hPa | 0 mm | - | - | - |
| 1778124539 | 15.56° C | 94% | 1005.7 hPa | 0 mm | - | - | - |
| 1778123932 | 15.56° C | 93% | 1005.8 hPa | 0 mm | - | - | - |
| 1778123326 | 15.56° C | 93% | 1005 hPa | 0 mm | - | - | - |
| 1778122720 | 15.56° C | 92% | 1004.4 hPa | 0 mm | - | - | - |
| 1778122114 | 16.11° C | 92% | 1003.9 hPa | 0 mm | - | - | - |
| 1778121507 | 16.11° C | 90% | 1004.4 hPa | 0 mm | - | - | - |
| 1778120902 | 16.67° C | 89% | 1004.8 hPa | 0 mm | - | - | - |
| 1778120294 | 16.67° C | 89% | 1004.8 hPa | 0 mm | - | - | - |
| 1778119689 | 16.67° C | 88% | 1004.9 hPa | 0 mm | - | - | - |
| 1778119085 | 17.22° C | 87% | 1004.9 hPa | 0 mm | - | - | - |
| 1778118476 | 17.22° C | 88% | 1004.1 hPa | 0 mm | - | - | - |
| 1778117870 | 16.67° C | 89% | 1003.2 hPa | 0 mm | - | - | - |
| 1778117264 | 17.22° C | 89% | 1003.5 hPa | 0 mm | - | - | - |
| 1778116671 | 17.78° C | 87% | 1004.4 hPa | 0 mm | - | - | - |
| 1778116052 | 18.33° C | 90% | 1004.8 hPa | 0 mm | - | - | - |
| 1778115446 | 19.44° C | 91% | 1004.5 hPa | 0 mm | - | - | - |
* Rain latest hour (hover to see other rain measurements)
** Current wind speed in m/s (hover to see current wind gust speed)